Tracking 35331 objects as of 17-Sep-2026
HD Live streaming from Space Station
objects crossing your sky now

STARLINK-34175

Track STARLINK-34175 now!
10-day predictions
STARLINK-34175 is classified as:


NORAD ID: 64169
Int'l Code: 2025-112Z
Launch date: May 27, 2025
Source: United States (US)
Launch site: AIR FORCE WESTERN TEST RANGE (AFWTR)
Your satellite tracking list
Your tracking list is empty




NASA's NSSDC Master Catalog

Two Line Element Set (TLE):
1 64169U 25112Z   26258.38021582  .00016056  00000-0  49842-3 0  9997
2 64169  97.2834 305.5252 0002093  91.1708 268.9775 15.33455089 71963
Source of the keplerian elements: AFSPC